IRIDIUM 33 DEB

Satellite information

Favourite Embed

Satellite Type and Status

DEBRISDECAYED

Key statistics

Satellite IRIDIUM 33 DEB at a glance.

Uptime

10298

Days in orbit

Revolutions

≈ 16.0

Per day

Orbit

LEO

Low Earth Orbit

Inclination

86.3

Latest

Satellite identification and parameters

Extended collection of information and parameters for IRIDIUM 33 DEB.

Object identification

Identified? True

Debris? True

Object name: IRIDIUM 33 DEB

International designator: 1997-051LU

Object number (NORAD): 34775

Object ID (CCSDS): 34775

Country: UNITED STATES OF AMERICA (US)

Current information (Y/N): Y

RCS size: SMALL

Orbital parameters

Decay date: Nov. 24, 2025

Period: 90.155 minutes

Inclination: 86.3008 deg

SMA: 6660.177 km

Apoapsis: 289.694 km

Periapsis: 274.39 km

RAAN: 26.2696 deg

Eccentricy: 0.00114892

Argument of periapsis: 289.6328 deg

Mean anomaly: 70.3716 deg

Mean motion: 15.97254329 rev/day

Mean motion (dot): 0.05396876 rev/day2

B* drag term: 0.015292695 1/REarth

Two-line elements (TLE)

Creation date: Nov. 26, 2025, 11:31 a.m.

Reference frame: TEME

Reference center: EARTH

Epoch: Nov. 23, 2025, 2:49 p.m. UTC

TLE line 0: 0 IRIDIUM 33 DEB

TLE line 1: 1 34775U 97051LU 25327.61786351 .05396876 41209-1 15293-1 0 9996

TLE line 2: 2 34775 86.3008 26.2696 0011489 289.6328 70.3716 15.97254329880989

Live tracking on map

Satellite IRIDIUM 33 DEB has decayed and is no longer in orbit. No tracking available.

In-orbit conjunctions

Satellite IRIDIUM 33 DEB has decayed and is no longer in orbit. No conjunctions available.

Associated space launch

Iridium provides global mobile telecommunications services using a constellation of 66 low earth orbit satellites in a 86.4° inclined orbit. Although 77 satellites were originally envisioned for the system and spawned the name based on the 77th element in the periodic table, the system has been scaled back. Motorola's Satellite Communications Group designed and manufactured the Iridium satellites with Lockheed Martin providing the LM-700A spacecraft buses.

IRIDIUM 33 DEB was lifted into orbit during the mission ‘Proton-K/17S40 | Iridium 27 to 33’, on board a Proton-K/17S40 space rocket.

The launch took place on Sept. 14, 1997, 1:36 a.m. from 81/23 (81L).

For more information about the launch, click the button.

Launch to space Proton-K/17S40 | Iridium 27 to 33
Proton-K/17S40 | Iridium 27 to 33

Agency: N/A

Status: Launch Successful

Launch date: Sept. 14, 1997, 1:36 a.m. UTC

Rocket: Proton-K/17S40

Launch pad: 81/23 (81L)

Location: Baikonur Cosmodrome, Republic of Kazakhstan

...

Latest news about this satellite

There are no fresh news available about this satellite. Check back as we update our databases every day.


Newsletter sign-up

Weekly statistics, charts and insights to help you stay on top of the space industry.